sat.trackr.live / text

‹ back to catalog

STARLINK-36150

NORAD 67031 · 2025-294B

PAYLOAD ACTIVE UNKNOWN

§ Identity

Operator
Country
US
Launch date
2025-12-11
Launch site
AFETR
Launch vehicle
Mass (kg)
RCS (m²)

Purposes: comms

External: N2YO · Heavens-Above · Gunter

§ Orbital elements

Epoch: 2026-05-25T04:30:17.760384Z

Period
94.27 min
Inclination
43.0026°
Eccentricity
0.0001377
Mean motion
15.27591018 rev/d
Perigee alt
482.1 km
Apogee alt
484.0 km
Semi-major
6,861.2 km
B*
8.0682e-4
RAAN
325.6262°
Arg perigee
276.3121°
Mean anomaly
83.7574°
Rev number
2,650

§ Raw data

STARLINK-361501 67031U 25294B   26145.18770556  .00022013  00000+0  80682-3 0  99902 67031  43.0026 325.6262 0001377 276.3121  83.7574 15.27591018 26506

JSON: /api/v1/satellites/67031 · /tle

For live sub-satellite position, see the globe view (requires WebGL).

§ Visibility from observer

Set your observer location to see the next 7 days of passes ≥ 10°. The values pass through the URL so the page stays shareable.

No JS? Fill the form by hand. The geolocation button needs JavaScript.